Location: Lake Crest
(37.6062°N, 88.9176°W)
Time: 12:12:15
(UTC+00:00)

Hubble Space Telescope - Pass Details

Date: 15 December 2019
Orbit: 536 x 540 km, 28.5° (Epoch: 21 January)

Event Time Altitude Azimuth Distance (km) Brightness Sun altitude
Exits shadow 11:25:37 - 213° (SSW) 1,919 3.4 -18.7°
Reaches altitude 10° 11:26:08 10° 208° (SSW) 1,783 3.3 -18.6°
Maximum altitude 11:28:49 17° 167° (SSE) 1,401 3.2 -18.1°
Drops below altitude 10° 11:31:31 10° 126° (SE) 1,785 4.5 -17.6°
Sets 11:34:24 0° 106° (ESE) 2,677 6.1 -17.0°
